NOAA 4

Satellite information

Favourite Embed

Satellite Type and Status

PAYLOADIN ORBIT

Key statistics

Satellite NOAA 4 at a glance.

Uptime

18437

Days in orbit

Revolutions

≈ 12.5

Per day

Orbit

SSO

Sun Synchronous Orbit

Inclination

102.0

Latest

Satellite identification and parameters

Extended collection of information and parameters for NOAA 4.

Object identification

Identified? True

Debris? False

Object name: NOAA 4

International designator: 1974-089A

Object number (NORAD): 7529

Object ID (CCSDS): 7529

Country: UNITED STATES OF AMERICA (US)

Current information (Y/N): Y

RCS size: LARGE

Orbital parameters

Period: 114.906 minutes

Inclination: 102.0038 deg

SMA: 7829.299 km

Apoapsis: 1457.892 km

Periapsis: 1444.436 km

RAAN: 131.371 deg

Eccentricy: 0.0008593

Argument of periapsis: 248.3314 deg

Mean anomaly: 173.7554 deg

Mean motion: 12.53194388 rev/day

Mean motion (dot): -0.00000023 rev/day2

B* drag term: 0.00014666 1/REarth

Two-line elements (TLE)

Creation date: May 8, 2025, 3:01 a.m.

Reference frame: TEME

Reference center: EARTH

Epoch: May 7, 2025, 9:20 p.m. UTC

TLE line 0: 0 NOAA 4

TLE line 1: 1 07529U 74089A 25127.88896003 -.00000023 00000-0 14666-3 0 9992

TLE line 2: 2 07529 102.0038 131.3710 0008593 248.3314 173.7554 12.53194388308754

Live tracking on map

Real-time ground track for satellite NOAA 4.

In-orbit conjunctions

There are no conjunctions computed for NOAA 4, at the moment. Check back to stay up to date, as we update our databases every day.

Go to all conjunctions

Associated space launch

Meteorological satellite using radiometric imaging

NOAA 4 was lifted into orbit during the mission ‘Delta 2310 | NOAA 4’, on board a Delta 2310 space rocket.

The launch took place on Nov. 15, 1974, 5:11 p.m. from Space Launch Complex 2W.

For more information about the launch, click the button.

Launch to space Delta 2310 | NOAA 4
Delta 2310 | NOAA 4

Agency: N/A

Status: Launch Successful

Launch date: Nov. 15, 1974, 5:11 p.m. UTC

Rocket: Delta 2310

Launch pad: Space Launch Complex 2W

Location: Vandenberg SFB, CA, USA

...

Latest news about this satellite

There are no fresh news available about this satellite. Check back as we update our databases every day.


Newsletter sign-up

Weekly statistics, charts and insights to help you stay on top of the space industry.